Location: Joplin, MO
(37.0842°N, 94.5133°W)
Time: 11:10:04
(UTC+02:00)

Courier 1B Rocket - Visible Passes

Search period start: 20 May 2024 00:00
Search period end: 30 May 2024 00:00
Orbit: 920 x 1201 km, 28.2° (Epoch: 19 May)

Date Brightness Start Highest point End Pass type
(mag) Time Alt. Az. Time Alt. Az. Time Alt. Az.
20 May 6.3 04:52:57 10° WSW 04:57:51 23° SSW 05:00:24 19° SSE visible
21 May 6.1 03:51:42 10° WSW 03:56:56 28° SSW 04:02:21 10° SE visible
21 May 6.9 05:46:53 10° SW 05:49:14 13° SSW 05:49:14 13° SSW visible
22 May 6.7 04:44:43 10° WSW 04:48:41 17° SSW 04:51:46 13° S visible
24 May 7.0 04:37:24 10° SW 04:39:29 12° SSW 04:41:35 10° S visible
